Tracking 28790 objects as of 19-Apr-2024
HD Live streaming from Space Station
objects crossing your sky now

TITAN 3C TRANSTAGE R/B

Track TITAN 3C TRANSTAGE R/B now!


NORAD ID: 11940
Int'l Code: 1973-040B
Perigee: 35,866.3 km
Apogee: 36,122.8 km
Inclination: 3.0 °
Period: 1,446.4 minutes
Semi major axis: 42365 km
RCS: Unknown
Launch date: June 12, 1973
Source: United States (US)
Launch site: AIR FORCE EASTERN TEST RANGE (AFETR)

Note: This is a ROCKET BODY
Your satellite tracking list
Your tracking list is empty




NASA's NSSDC Master Catalog

Two Line Element Set (TLE):
1 11940U 73040B   24109.06072795  .00000093  00000-0  00000+0 0  9992
2 11940   2.9921 265.6834 0030277  48.3462 311.5899  0.99559735 18759
Source of the keplerian elements: McCants